Weather reports worldwide

Advertisment
Tarbes/Ossun, France (7621): temperature & dewpoint: 18.06.2018 11:00:00 - 24.06.2018 11:00:00 (CEST)Tarbes/Ossun, France (7621): temperature 5cm: 18.06.2018 11:00:00 - 24.06.2018 11:00:00 (CEST)Tarbes/Ossun, France (7621): temperature -20cm & temperature -100cm: 18.06.2018 11:00:00 - 24.06.2018 11:00:00 (CEST)Tarbes/Ossun, France (7621): wind speed & gusts: 18.06.2018 11:00:00 - 24.06.2018 11:00:00 (CEST)Tarbes/Ossun, France (7621): wind direction: 18.06.2018 11:00:00 - 24.06.2018 11:00:00 (CEST)Tarbes/Ossun, France (7621): reduced air pressure: 18.06.2018 11:00:00 - 24.06.2018 11:00:00 (CEST)Tarbes/Ossun, France (7621): visibility: 18.06.2018 11:00:00 - 24.06.2018 11:00:00 (CEST)Tarbes/Ossun, France (7621): sunshine duration: 18.06.2018 11:00:00 - 24.06.2018 11:00:00 (CEST)Tarbes/Ossun, France (7621): precipitation: 18.06.2018 11:00:00 - 24.06.2018 11:00:00 (CEST)
Date & Time tt [°C] td [°C] tt 5cm [°C] tt -20cm [°C] tt -100cm [°C] ff [km/h] ff [kn] fx [km/h] fx [kn] dd ppp [hPa] vv [km] sd [min] rr [mm]
24.06.2018 11:00:00 - - - - - - - - - - - - - -
24.06.2018 10:00:00 22,9 14,5 22,9 19,6 16,2 3 2 9 5 NE 1017,8 37 60 0,0
24.06.2018 09:00:00 19,4 14,4 16,5 19,8 16,1 5 3 12 7 S 1018,3 59 58 0,0
24.06.2018 08:00:00 15,8 13,3 12,1 19,9 16,1 8 4 16 8 S 1019,0 41 29 0,0
24.06.2018 07:00:00 13,5 12,1 8,5 20,1 16,2 9 5 16 8 SSE 1019,4 46 7 0,0
24.06.2018 06:00:00 13,4 11,8 8,6 20,2 16,1 4 2 16 9 SW 1018,8 56 0 0,0
24.06.2018 05:00:00 11,9 10,3 8,8 20,4 16,1 10 6 13 7 SSW 1019,0 58 0 0,0
24.06.2018 04:00:00 14,6 11,4 9,7 20,6 16,2 8 5 14 7 SSE 1018,5 60 0 0,0
24.06.2018 03:00:00 13,4 10,9 10,1 20,7 16,1 8 5 13 7 SSE 1019,4 60 0 0,0
24.06.2018 02:00:00 14,4 11,4 10,7 20,8 16,1 9 5 14 8 S 1019,6 60 0 0,0
24.06.2018 01:00:00 15,1 12,4 10,7 20,9 16,1 8 4 10 6 SSE 1019,8 60 0 0,0
24.06.2018 00:00:00 14,7 11,7 11,6 21,0 16,1 7 4 9 5 S 1020,3 60 0 0,0
23.06.2018 23:00:00 16,5 12,5 11,6 21,0 16,1 8 4 10 5 SSW 1020,2 60 0 0,0
23.06.2018 22:00:00 20,3 11,8 12,7 21,0 16,1 5 3 11 6 N 1019,0 60 17 0,0
23.06.2018 21:00:00 22,9 11,3 20,0 20,9 16,1 9 5 22 12 N 1018,1 58 60 0,0
23.06.2018 20:00:00 24,8 10,6 24,9 20,8 16,1 14 7 21 12 N 1017,9 55 60 0,0
23.06.2018 19:00:00 25,7 11,1 33,2 20,6 16,1 9 5 22 12 N 1017,9 53 60 0,0
23.06.2018 18:00:00 25,6 11,0 37,7 20,3 16,1 13 7 25 14 N 1018,3 45 60 0,0
23.06.2018 17:00:00 25,8 10,8 39,2 20,1 16,1 9 5 22 12 NNE 1018,5 40 60 0,0
23.06.2018 16:00:00 25,8 12,6 38,5 19,8 16,0 6 3 28 15 ESE 1018,6 34 60 0,0
23.06.2018 15:00:00 25,0 11,9 38,0 19,6 16,0 9 5 26 14 N 1019,1 50 60 0,0
23.06.2018 14:00:00 24,4 12,4 37,9 19,5 16,0 9 5 20 11 NNW 1019,7 20 60 0,0
23.06.2018 13:00:00 24,3 11,9 37,2 19,4 16,0 9 5 24 13 NNE 1020,2 23 60 0,0
23.06.2018 12:00:00 23,5 11,5 32,1 19,4 16,0 9 5 19 10 NNE 1020,3 26 60 0,0
23.06.2018 11:00:00 21,9 13,5 28,9 19,4 16,0 7 4 17 9 NNW 1020,5 19 60 0,0
23.06.2018 10:00:00 20,1 14,9 - - - 4 2 15 8 WNW 1020,9 20 - 0,0
23.06.2018 09:00:00 17,8 14,7 15,8 19,6 16,0 6 3 13 7 SW 1021,2 21 60 0,0
23.06.2018 08:00:00 15,3 13,7 10,1 19,7 16,0 5 3 10 5 S 1021,6 23 60 0,0
23.06.2018 07:00:00 13,2 12,1 7,5 19,9 16,0 5 3 9 5 SE 1021,7 14 12 0,0
23.06.2018 06:00:00 12,7 11,4 7,5 20,1 16,0 5 3 9 5 SSE 1021,6 43 0 0,0
23.06.2018 05:00:00 12,0 10,2 8,6 20,2 16,0 6 3 8 4 SSE 1021,7 58 0 0,0
23.06.2018 04:00:00 12,8 10,7 10,2 20,3 16,0 6 4 10 6 S 1021,6 59 0 0,0
23.06.2018 03:00:00 14,7 12,4 10,7 20,4 16,0 5 3 8 4 SW 1021,3 60 0 0,0
23.06.2018 02:00:00 17,3 13,8 14,7 20,5 16,0 5 3 7 4 SSW 1021,3 60 0 0,0
23.06.2018 01:00:00 17,9 15,2 16,6 20,6 15,9 5 3 9 5 S 1021,5 57 0 0,0
23.06.2018 00:00:00 17,6 14,9 12,6 20,6 15,9 8 4 10 5 SSW 1021,6 40 0 0,0
22.06.2018 23:00:00 19,0 11,8 12,6 20,6 15,9 0 0 7 4 N 1021,4 20 0 0,0
22.06.2018 22:00:00 20,6 12,3 16,7 20,6 15,9 2 1 23 12 NNE 1020,6 7 5 0,0
22.06.2018 21:00:00 22,5 13,8 21,6 20,6 15,9 13 7 20 11 N 1019,9 50 0 0,0
22.06.2018 20:00:00 23,4 14,7 23,5 20,5 15,9 13 7 21 11 NNE 1019,5 34 0 0,0
22.06.2018 19:00:00 24,0 16,0 24,9 20,4 15,9 14 7 23 12 N 1019,2 24 0 0,0
22.06.2018 18:00:00 24,4 16,4 28,0 20,2 15,9 13 7 29 15 N 1019,2 22 31 0,0
22.06.2018 17:00:00 24,8 18,0 31,7 20,1 15,9 13 7 25 14 W 1019,4 15 37 0,0
22.06.2018 16:00:00 23,9 18,3 28,8 19,9 15,8 16 8 25 13 SW 1019,7 16 2 0,0
22.06.2018 15:00:00 23,6 18,3 31,4 19,9 15,9 17 9 29 15 WSW 1020,3 14 49 0,0
22.06.2018 14:00:00 22,3 18,9 28,2 19,8 15,8 16 9 23 12 WSW 1020,8 17 2 0,0
22.06.2018 13:00:00 21,5 18,7 23,6 19,8 15,8 11 6 21 11 W 1021,1 18 0 0,0
22.06.2018 12:00:00 20,1 18,4 21,7 19,9 15,8 13 7 28 15 WNW 1021,3 16 0 0,0
22.06.2018 11:00:00 19,7 17,7 22,7 19,9 15,8 13 7 24 13 W 1021,2 20 2 0,0
22.06.2018 10:00:00 19,6 18,1 - - - 13 7 21 11 WSW 1021,1 12 - 0,0
22.06.2018 09:00:00 18,4 17,7 18,4 20,0 15,8 9 5 15 8 SW 1021,2 5 0 0,0
22.06.2018 08:00:00 18,2 17,2 18,2 20,1 15,8 11 6 34 18 W 1021,2 3,8 0 0,0
22.06.2018 07:00:00 18,3 17,1 18,0 20,2 15,8 6 4 18 10 W 1021,0 9 0 0,0
22.06.2018 06:00:00 18,1 16,9 17,9 20,3 15,8 10 5 19 11 WSW 1020,9 8 0 0,0
22.06.2018 05:00:00 18,2 17,0 17,9 20,4 15,7 9 5 20 11 W 1021,0 9 0 0,0
22.06.2018 04:00:00 18,2 16,9 18,1 20,4 15,7 8 4 16 9 W 1021,1 4,7 0 0,0
22.06.2018 03:00:00 18,5 17,0 18,3 20,5 15,7 11 6 21 11 WNW 1021,1 8 0 0,0
22.06.2018 02:00:00 19,3 17,8 17,9 20,6 15,7 11 6 18 10 WNW 1020,9 8 0 0,0
22.06.2018 01:00:00 19,2 17,5 17,8 20,6 15,7 10 5 18 10 SW 1021,0 10 0 0,0
22.06.2018 00:00:00 19,8 17,6 19,2 20,7 15,7 8 4 18 10 W 1021,3 12 0 0,0
21.06.2018 23:00:00 20,1 17,7 19,7 20,7 15,7 11 6 19 11 W 1021,5 10 0 0,0
21.06.2018 22:00:00 20,6 18,0 19,9 20,6 15,7 8 5 21 11 W 1020,6 11 17 0,0
21.06.2018 21:00:00 21,5 18,3 21,6 20,5 15,7 11 6 24 13 WNW 1019,7 13 56 0,0
21.06.2018 20:00:00 23,1 19,1 25,7 20,4 15,7 14 8 26 14 WNW 1019,4 15 50 0,0
21.06.2018 19:00:00 24,2 19,3 - - - 15 8 44 24 WNW 1019,1 17 - 0,0
21.06.2018 18:00:00 24,6 19,0 34,3 20,1 15,7 19 10 32 17 WNW 1019,1 12 58 0,0
21.06.2018 17:00:00 24,7 19,1 30,3 19,9 15,6 20 11 36 20 W 1019,1 11 29 0,0
21.06.2018 16:00:00 25,3 19,7 33,4 19,7 15,6 20 11 41 22 W 1019,0 14 45 0,0
21.06.2018 15:00:00 25,6 19,7 38,6 19,6 15,6 15 8 26 14 NNW 1018,7 18 60 0,0
21.06.2018 14:00:00 23,4 18,9 33,5 19,6 15,6 7 4 20 11 NW 1019,1 16 49 0,0
21.06.2018 13:00:00 22,3 18,7 27,5 19,6 15,6 6 4 16 9 WNW 1019,9 15 3 0,0
21.06.2018 12:00:00 20,2 18,0 23,1 19,6 15,6 6 3 14 8 NNW 1020,2 14 0 0,0
21.06.2018 11:00:00 18,8 17,5 21,1 19,7 15,6 8 4 19 11 WNW 1020,4 10 0 0,0
21.06.2018 10:00:00 18,2 17,2 19,6 19,7 15,6 10 5 31 17 WSW 1020,7 8 0 0,0
21.06.2018 09:00:00 17,9 17,4 18,2 19,8 15,6 9 5 23 12 W 1020,9 8 0 0,0
21.06.2018 08:00:00 17,6 17,1 17,8 19,9 15,6 12 7 32 17 W 1020,6 1,3 0 0,0
21.06.2018 07:00:00 17,8 17,3 17,7 19,9 15,6 11 6 18 10 WSW 1020,0 3,4 0 0,0
21.06.2018 06:00:00 17,9 17,4 17,8 20,0 15,6 10 6 20 11 W 1019,4 1,7 0 0,0
21.06.2018 05:00:00 18,2 17,4 16,2 20,1 15,6 14 8 25 13 W 1019,2 3,5 0 0,0
21.06.2018 04:00:00 19,0 17,5 16,9 20,2 15,6 8 5 21 11 WSW 1019,3 11 0 0,0
21.06.2018 03:00:00 20,1 19,1 19,1 20,3 15,6 7 4 26 14 WSW 1019,1 8 0 0,0
21.06.2018 02:00:00 20,3 19,1 17,7 20,3 15,6 18 10 27 15 WSW 1018,9 7 0 0,0
21.06.2018 01:00:00 20,4 17,2 17,6 20,4 15,6 7 4 13 7 WSW 1018,5 59 0 0,0
21.06.2018 00:00:00 21,0 17,6 17,5 20,4 15,6 10 5 14 8 S 1018,4 60 0 0,0
20.06.2018 23:00:00 21,5 17,7 18,4 20,4 15,5 8 5 11 6 SSE 1018,2 34 0 0,0
20.06.2018 22:00:00 23,3 18,8 19,8 20,3 15,5 8 5 10 6 SW 1017,4 60 11 0,0
20.06.2018 21:00:00 28,1 17,0 24,4 20,2 15,5 6 3 16 9 NE 1016,3 60 60 0,0
20.06.2018 20:00:00 29,1 16,3 30,2 20,0 15,5 10 5 21 11 NNE 1016,1 49 60 0,0
20.06.2018 19:00:00 29,8 17,3 37,6 19,8 15,5 11 6 25 14 NNE 1015,8 54 60 0,0
20.06.2018 18:00:00 30,3 17,0 40,9 19,6 15,5 11 6 26 14 NNE 1016,1 40 60 0,0
20.06.2018 17:00:00 30,1 17,5 42,1 19,3 15,5 13 7 28 15 NE 1016,1 31 60 0,0
20.06.2018 16:00:00 30,2 17,0 42,8 19,0 15,5 15 8 27 14 NNE 1016,3 23 60 0,0
20.06.2018 15:00:00 29,8 17,3 41,6 18,8 15,5 14 8 30 16 NNE 1016,5 20 60 0,0
20.06.2018 14:00:00 29,6 17,1 40,7 18,6 15,5 12 6 25 14 NNE 1016,9 22 60 0,0
20.06.2018 13:00:00 28,6 17,5 39,9 18,4 15,5 8 5 19 10 N 1017,2 24 60 0,0
20.06.2018 12:00:00 27,5 17,1 37,0 18,4 15,5 6 3 16 9 NNE 1017,4 20 60 0,0
20.06.2018 11:00:00 26,0 17,4 30,9 18,4 15,5 7 4 18 10 ENE 1017,6 42 60 0,0
20.06.2018 10:00:00 24,3 17,3 24,5 18,4 15,5 8 4 17 9 NE 1018,0 38 60 0,0
20.06.2018 09:00:00 21,6 17,2 18,6 18,6 15,5 5 3 9 5 N 1018,3 50 60 0,0
20.06.2018 08:00:00 18,3 15,7 14,4 18,7 15,5 6 3 13 7 SE 1018,8 41 60 0,0
20.06.2018 07:00:00 15,3 14,3 11,9 18,8 15,5 11 6 13 7 S 1019,0 18 13 0,0
20.06.2018 06:00:00 15,3 14,3 12,4 18,9 15,5 11 6 14 8 S 1019,1 20 0 0,0
20.06.2018 05:00:00 15,2 14,2 11,4 19,0 15,5 6 4 10 5 SSE 1019,3 44 0 0,0
20.06.2018 04:00:00 15,0 14,2 11,9 19,1 15,5 6 3 10 5 S 1019,5 45 0 0,0
20.06.2018 03:00:00 15,0 14,0 11,7 19,2 15,5 7 4 9 5 SSW 1020,0 42 0 0,0
20.06.2018 02:00:00 15,7 14,6 12,0 19,2 15,5 5 3 8 5 S 1020,2 57 0 0,0
20.06.2018 01:00:00 16,2 15,2 12,6 19,3 15,5 4 2 8 4 SSW 1020,6 56 0 0,0
20.06.2018 00:00:00 16,8 15,3 13,3 19,3 15,5 6 3 14 8 S 1020,8 59 0 0,0
19.06.2018 23:00:00 18,5 16,7 13,3 19,3 15,5 4 2 7 4 SW 1020,5 60 0 0,0
19.06.2018 22:00:00 21,9 15,3 16,8 19,2 15,5 4 2 9 5 E 1019,7 60 0 0,0
19.06.2018 21:00:00 23,3 15,1 22,2 19,1 15,5 6 4 15 8 NE 1019,7 60 9 0,0
19.06.2018 20:00:00 25,1 15,4 24,9 19,0 15,5 6 3 13 7 NE 1019,7 46 38 0,0
19.06.2018 19:00:00 23,9 15,1 25,0 18,8 15,5 6 4 14 8 ENE 1020,2 60 20 0,0
19.06.2018 18:00:00 24,5 14,9 27,9 18,7 15,5 10 5 18 10 NNE 1020,5 56 10 0,0
19.06.2018 17:00:00 25,2 14,9 30,2 18,5 15,5 5 3 16 8 NE 1020,7 60 10 0,0
19.06.2018 16:00:00 24,2 14,6 30,2 18,3 15,5 9 5 29 16 NNE 1021,1 60 3 0,0
19.06.2018 15:00:00 25,7 16,0 37,5 18,1 15,4 10 5 27 15 ENE 1021,0 44 54 0,0
19.06.2018 14:00:00 24,0 15,0 32,9 18,0 15,4 13 7 29 15 NE 1021,8 60 33 0,0
19.06.2018 13:00:00 23,2 15,5 29,6 17,9 15,4 11 6 23 12 NE 1022,1 60 9 0,0
19.06.2018 12:00:00 21,8 14,7 29,7 17,9 15,5 11 6 24 13 ENE 1022,7 37 40 0,0
19.06.2018 11:00:00 21,4 16,4 26,9 17,9 15,4 9 5 18 10 ENE 1023,1 57 38 0,0
19.06.2018 10:00:00 19,4 16,2 22,2 17,9 15,4 6 3 16 8 NE 1024,0 47 38 0,0
19.06.2018 09:00:00 16,9 15,1 17,8 17,9 15,4 5 3 17 9 ENE 1024,8 28 22 0,0
19.06.2018 08:00:00 16,0 14,7 15,7 18,0 15,5 5 3 9 5 E 1025,1 31 0 0,0
19.06.2018 07:00:00 15,6 14,5 15,4 18,0 15,4 3 2 8 5 NE 1025,4 20 0 0,0
19.06.2018 06:00:00 15,5 14,2 15,2 18,1 15,4 2 1 9 5 NNE 1025,6 10 0 0,0
19.06.2018 05:00:00 15,7 14,2 15,2 18,1 15,5 5 3 16 8 NNE 1025,6 36 0 0,0
19.06.2018 04:00:00 16,2 15,1 15,7 18,2 15,4 7 4 11 6 N 1025,5 15 0 0,0
19.06.2018 03:00:00 16,6 15,3 16,1 18,2 15,5 6 4 12 7 NNE 1025,5 19 0 0,0
19.06.2018 02:00:00 16,8 15,7 16,3 18,2 15,5 9 5 13 7 N 1025,7 33 0 0,0
19.06.2018 01:00:00 17,2 15,7 16,6 18,2 15,4 9 5 17 9 N 1025,8 19 0 0,0
19.06.2018 00:00:00 17,8 15,8 17,0 18,3 15,4 7 4 17 9 NNW 1026,0 60 0 0,0
18.06.2018 23:00:00 18,5 15,6 17,2 18,2 15,4 6 4 10 5 NNW 1025,8 20 0 0,0
18.06.2018 22:00:00 18,7 15,4 17,6 18,3 15,5 7 4 13 7 SW 1025,3 15 0 0,0
18.06.2018 21:00:00 19,5 14,9 18,9 18,2 15,4 4 2 9 5 WSW 1024,9 7 0 0,0
18.06.2018 20:00:00 20,1 14,5 20,4 18,1 15,4 0 0 9 5 N 1024,8 16 0 0,0
18.06.2018 19:00:00 20,5 15,1 21,9 18,0 15,4 4 2 12 7 NW 1024,8 18 0 0,0
18.06.2018 18:00:00 20,3 15,3 21,5 17,8 15,4 7 4 13 7 NNW 1025,0 60 0 0,0
18.06.2018 17:00:00 20,1 14,5 21,6 17,6 15,4 7 4 19 10 NNW 1025,4 58 0 0,0
18.06.2018 16:00:00 20,7 13,9 26,4 17,4 15,5 6 3 15 8 NW 1025,2 16 0 0,0
18.06.2018 15:00:00 20,7 14,3 28,0 17,2 15,4 6 3 20 11 WNW 1025,4 19 28 0,0
18.06.2018 14:00:00 20,0 14,8 25,7 17,1 15,4 9 5 18 10 N 1025,7 60 27 0,0
18.06.2018 13:00:00 19,5 13,9 26,3 17,0 15,4 7 4 21 11 WNW 1026,2 16 42 0,0
18.06.2018 12:00:00 18,4 13,3 24,9 17,0 15,4 9 5 30 16 WNW 1026,6 16 33 0,0
18.06.2018 11:00:00 17,5 12,8 20,8 17,0 15,4 6 4 19 10 NW 1026,8 19 39 0,0

tt = temperature
td = dewpoint
tt 5cm = temperature 5cm
tt -20cm = temperature -20cm
tt -100cm = temperature -100cm
ff = wind speed
fx = gusts
dd = wind direction
ppp = reduced air pressure
vv = visibility
sd = sunshine duration
rr = precipitation

Next stations